Regional Weather Roundup
Issued by NWS

Home | Current Version | Previous Version | Text Only | Print | Product List | Glossary Off
Versions: 1 2 3 4 5 6 7 8 9 10 11 12 13 14 15 16 17 18 19 20 21 22 23 24 25 26 27 28 29 30 31 32 33 34 35 36 37 38 39 40 41 42 43 44 45 46 47 48 49 50

912
ASUS43 KLOT 111508
RWRIL

ILLINOIS REGIONAL WEATHER ROUNDUP
NATIONAL WEATHER SERVICE CHICAGO/ROMEOVILLE IL
900 AM CST MON DEC 11 2017

NOTE: "FAIR" INDICATES FEW OR NO CLOUDS BELOW 12,000 FEET WITH NO
SIGNIFICANT WEATHER AND/OR OBSTRUCTIONS TO VISIBILITY.

* THESE STATIONS ARE NOT UNDER NWS QUALITY CONTROL. THEY ALSO MAY NOT
  REPORT WEATHER SUCH AS PRECIPITATION OR FOG.

ILZ001-002-007-009-015-016-024-111600-
NORTHWEST ILLINOIS

CITY           SKY/WX    TMP DP  RH WIND       PRES   REMARKS
MOLINE         PTSUNNY   34  26  72 SE6       29.76F WCI  29
STERLING*      MOSUNNY   32  26  78 SE8       29.81F WCI  25
SAVANNA*       PTSUNNY   31  25  76 SE8       29.79F WCI  24
$$

ILZ003-004-008-010-011-017-018-111600-
NORTH CENTRAL ILLINOIS

CITY           SKY/WX    TMP DP  RH WIND       PRES   REMARKS
ROCKFORD       CLOUDY    29  23  78 SE10      29.85F WCI  20
FREEPORT*      CLOUDY    29  24  81 SE8       29.82F WCI  21
ROCHELLE*      CLOUDY    29  24  80 SE14      29.83F WCI  18
DE KALB*       PTSUNNY   28  24  86 S14       29.85F WCI  16
PERU*          CLOUDY    31  24  75 SE10      29.84F WCI  22
$$

ILZ005-006-012>014-019>023-111600-
NORTHEAST ILLINOIS

CITY           SKY/WX    TMP DP  RH WIND       PRES   REMARKS
CHICAGO-OHARE  CLOUDY    30  22  72 S12       29.89F WCI  20
CHICAGO-MIDWAY PTSUNNY   30  22  72 S12G21    29.91F WCI  20
AURORA         PTSUNNY   29  24  82 SE12      29.88F WCI  19
LANSING*       CLOUDY    29  24  82 S10       29.92F WCI  19
WAUKEGAN       CLOUDY    29  22  75 S9        29.87F WCI  20
DUPAGE AIRPORT PTSUNNY   29  24  82 S9        29.87F HAZE    WCI  20
KANKAKEE*      CLOUDY    30  23  75 S9        29.91F WCI  21
WHEELING       CLOUDY    31  23  72 S14       29.91F WCI  21
MORRIS*        CLOUDY    30  24  79 S8        29.89F WCI  22
ROMEOVILLE*    CLOUDY    29  24  81 S10       29.90F WCI  20
NORTHERLY ISL    N/A     30  22  72 S8          N/A  WCI  23
$$

LMZ740>746-111600-
SOUTHERN LAKE MICHIGAN

STATION/POSITION SKY/WX   TEMP    WIND        PRES    VSBY  WAVE
                          AIR SEA DIR/SP/G                  HT/PER
                          (F)     (DEG/KT/KT) (MB)    (MI)  (FT/S)
HARRISON CRIB              30     190/ 18/ 20   N/A
BURNHAM HARBOR             30     200/  7/ 13   N/A
CALUMET HARBOR             29     170/  7/ 13 1012.5F
BURNS HARBOR               29     190/ 12/ 18 1013.9
MICHIGAN CITY              28     160/ 12/ 17   N/A
$$

ILZ025>027-034>036-040-047-049-050-058-095>099-111600-
WEST-CENTRAL ILLINOIS

CITY           SKY/WX    TMP DP  RH WIND       PRES   REMARKS
QUINCY         CLOUDY    39  26  59 S14       29.80F WCI  31
GALESBURG*     MOSUNNY   34  29  83 SE7       29.80F WCI  27
MACOMB*        MOSUNNY   34  28  79 S10       29.81F WCI  26
JACKSONVILLE*  MOSUNNY   37  26  63 S10       29.84F WCI  30
PITTSFIELD*    PTSUNNY   37  28  70 S7        29.85F WCI  31
$$

ILZ028>032-037-038-041>044-048-051>054-059>061-111600-
CENTRAL ILLINOIS

CITY           SKY/WX    TMP DP  RH WIND       PRES   REMARKS
PONTIAC        CLOUDY    32  28  82 S12       29.88F WCI  23
BLOOMINGTON    MOSUNNY   31  26  82 S16       29.87F WCI  20
PEORIA         MOSUNNY   33  26  75 S10       29.84F WCI  25
LACON*         MOSUNNY   34  26  72 S7        29.82F WCI  28
LINCOLN*       CLOUDY    34  28  78 S12       29.89F WCI  25
SPRINGFIELD    MOSUNNY   38  27  64 S14       29.87F WCI  30
TAYLORVILLE    CLOUDY    36  27  69 S15       29.92F WCI  26
$$

ILZ033-039-045-046-055>057-062-063-111600-
EAST-CENTRAL ILLINOIS

CITY           SKY/WX    TMP DP  RH WIND       PRES   REMARKS
CHAMPAIGN      MOSUNNY   33  26  75 S15       29.92F WCI  23
DANVILLE*      CLOUDY    31  24  75 S13       29.92F WCI  21
RANTOUL*       CLOUDY    32  27  80 S14       29.91F WCI  22
MATTOON        CLOUDY    33  27  78 S12       29.94F WCI  24
PARIS*         CLOUDY    32  26  80 S12       29.99F WCI  23
$$

ILZ079-100>102-111600-
SOUTHWEST ILLINOIS

CITY           SKY/WX    TMP DP  RH WIND       PRES   REMARKS
ALTON          PTSUNNY   37  30  75 S12       29.94F WCI  30
BELLEVILLE     CLOUDY    42  29  61 S10       29.94F
CAHOKIA*       MOSUNNY   43  29  57 CALM      29.93F
$$

ILZ064>066-069>071-074>076-080>082-084>086-088>090-092>094-111600-
SOUTH-CENTRAL ILLINOIS

CITY           SKY/WX    TMP DP  RH WIND       PRES   REMARKS
CARBONDALE     SUNNY     41  32  70 S9        30.03F
CAIRO*         SUNNY     39  32  77 S3        30.09S
EFFINGHAM*     CLOUDY    36  28  75 SE9       29.98F WCI  29
MARION         MOSUNNY   41  34  75 CALM      30.05F
MT. VERNON     MOSUNNY   37  34  89 S9        30.00F WCI  30
CENTRALIA*     CLOUDY    41  30  65 S12       29.97F
SALEM*         MOSUNNY   41  29  62 S12       29.98F
METROPOLIS*    SUNNY     39  32  75 S3        30.09F
$$

ILZ067-068-072-073-078-083-087-091-111600-
SOUTHEAST ILLINOIS

CITY           SKY/WX    TMP DP  RH WIND       PRES   REMARKS
LAWRENCEVILLE  CLOUDY    32  27  81 S7        30.03F WCI  26
FLORA*         CLOUDY    38  31  74 S10       30.00F WCI  31
FAIRFIELD*     CLOUDY    36  31  83 S7        30.01F WCI  30
HARRISBURG*    MOSUNNY   35  32  90 S5        30.05F WCI  31
ROBINSON*      CLOUDY    32  27  83 S9        30.02F WCI  24
CARMI*         MOSUNNY   35  32  88 S7        30.03F WCI  30
$$

ABBREVIATIONS USED IN REMARKS
   TC - TEMPERATURE IN CELSIUS
  WCI - WIND CHILL INDEX
   HX - HEAT INDEX
  VSB - VISIBILITY
$$





USA.gov is the U.S. government's official web portal to all federal, state and local government web resources and services.